SVA38 HECA-OERK

Flight info

Callsign SVA38
Flight time 1h 54m
Altitude 35000
Route HECA/05C CVO L677 MENLI N697 SISIK W976 TAKSU L550 KARIK B411 DEESA Y415 NIMAR G662 KUNEK
Aircraft B77W/H-SDE1E2E3FGHIJ2J3J4J5M1RWXY/LB1D1

Departure

Time 2026-05-05 14:47
Airport Cairo International Airport (HECA)

Arrival

Time 2026-05-05 16:41
Airport King Khalid International Airport (OERK)
Time Latitude Longitude Altitude Speed Heading
2026-05-05 14:02 30.11266 31.40149 379 ft 0 kts 214°
2026-05-05 14:03 30.11267 31.40149 379 ft 0 kts 214°
2026-05-05 14:14 30.11267 31.40150 379 ft 0 kts 214°
2026-05-05 14:21 30.11268 31.40150 379 ft 0 kts 214°
2026-05-05 14:32 30.11269 31.40151 379 ft 2 kts 214°
2026-05-05 14:32 30.11290 31.40167 379 ft 4 kts 213°
2026-05-05 14:32 30.11311 31.40182 379 ft 3 kts 204°
2026-05-05 14:32 30.11327 31.40188 379 ft 2 kts 180°
2026-05-05 14:33 30.11342 31.40185 379 ft 2 kts 161°
2026-05-05 14:33 30.11353 31.40180 379 ft 2 kts 156°
2026-05-05 14:33 30.11362 31.40175 379 ft 0 kts 155°
2026-05-05 14:35 30.11363 31.40175 379 ft 0 kts 155°
2026-05-05 14:39 30.11362 31.40175 379 ft 0 kts 155°
2026-05-05 14:39 30.11362 31.40176 379 ft 0 kts 155°
2026-05-05 14:39 30.11320 31.40224 379 ft 15 kts 111°
2026-05-05 14:40 30.11289 31.40342 379 ft 15 kts 112°
2026-05-05 14:40 30.11222 31.40434 379 ft 15 kts 139°
2026-05-05 14:40 30.11142 31.40515 379 ft 15 kts 139°
2026-05-05 14:40 30.11062 31.40595 379 ft 15 kts 139°
2026-05-05 14:41 30.10971 31.40599 379 ft 15 kts 223°
2026-05-05 14:41 30.10899 31.40509 379 ft 15 kts 227°
2026-05-05 14:41 30.10829 31.40416 379 ft 15 kts 231°
2026-05-05 14:41 30.10761 31.40323 379 ft 15 kts 229°
2026-05-05 14:42 30.10691 31.40230 379 ft 15 kts 228°
2026-05-05 14:42 30.10620 31.40139 379 ft 15 kts 228°
2026-05-05 14:42 30.10549 31.40048 379 ft 15 kts 228°
2026-05-05 14:42 30.10502 31.39988 379 ft 15 kts 228°
2026-05-05 14:43 30.10434 31.39894 379 ft 15 kts 231°
2026-05-05 14:43 30.10365 31.39801 379 ft 15 kts 230°
2026-05-05 14:43 30.10296 31.39708 379 ft 15 kts 228°
2026-05-05 14:43 30.10225 31.39617 379 ft 15 kts 228°
2026-05-05 14:44 30.10132 31.39597 379 ft 15 kts 151°
2026-05-05 14:44 30.10053 31.39669 379 ft 12 kts 140°
2026-05-05 14:44 30.10029 31.39698 379 ft 0 kts 126°
2026-05-05 14:46 30.10027 31.39700 379 ft 5 kts 126°
2026-05-05 14:46 30.10002 31.39783 379 ft 13 kts 95°
2026-05-05 14:46 30.10021 31.39891 380 ft 15 kts 58°
2026-05-05 14:47 30.10174 31.40097 378 ft 78 kts 47°
2026-05-05 14:47 30.10781 31.40895 377 ft 189 kts 47°
2026-05-05 14:47 30.11777 31.42283 979 ft 239 kts 44°
2026-05-05 14:47 30.12864 31.43699 2617 ft 230 kts 49°
2026-05-05 14:48 30.13474 31.45461 3275 ft 246 kts 81°
2026-05-05 14:48 30.13253 31.47505 3618 ft 272 kts 108°
2026-05-05 14:48 30.12288 31.49377 4147 ft 271 kts 124°
2026-05-05 14:48 30.11194 31.51152 4894 ft 275 kts 124°
2026-05-05 14:49 30.10056 31.52961 5687 ft 278 kts 130°
2026-05-05 14:49 30.08614 31.54500 6288 ft 287 kts 141°
2026-05-05 14:49 30.07042 31.55919 7035 ft 292 kts 142°
2026-05-05 14:49 30.05452 31.57391 7887 ft 294 kts 141°
2026-05-05 14:50 30.03873 31.58931 8582 ft 301 kts 140°
2026-05-05 14:50 30.02292 31.60542 9394 ft 305 kts 139°
2026-05-05 14:50 30.00716 31.62201 10156 ft 308 kts 138°
2026-05-05 14:50 29.99113 31.63921 10618 ft 325 kts 138°
2026-05-05 14:51 29.97399 31.65781 10804 ft 352 kts 137°
2026-05-05 14:51 29.95554 31.67800 11004 ft 378 kts 137°
2026-05-05 14:51 29.93599 31.69950 11403 ft 396 kts 137°
2026-05-05 14:51 29.91578 31.72179 12049 ft 408 kts 137°
2026-05-05 14:52 29.89503 31.74469 12881 ft 416 kts 138°
2026-05-05 14:52 29.87392 31.76797 13741 ft 423 kts 138°
2026-05-05 14:52 29.85251 31.79155 14503 ft 430 kts 139°
2026-05-05 14:52 29.83073 31.81552 15317 ft 435 kts 139°
2026-05-05 14:53 29.80894 31.83988 16111 ft 440 kts 136°
2026-05-05 14:53 29.78995 31.86804 16792 ft 452 kts 123°
2026-05-05 14:53 29.77563 31.90072 17600 ft 459 kts 112°
2026-05-05 14:53 29.76639 31.93554 18351 ft 463 kts 104°
2026-05-05 14:54 29.75866 31.97199 18955 ft 471 kts 103°
2026-05-05 14:54 29.75096 32.00893 19592 ft 478 kts 103°
2026-05-05 14:54 29.74309 32.04631 20255 ft 483 kts 104°
2026-05-05 14:54 29.73498 32.08406 20890 ft 489 kts 104°
2026-05-05 14:55 29.72660 32.12238 21534 ft 495 kts 105°
2026-05-05 14:55 29.71804 32.16096 22151 ft 501 kts 105°
2026-05-05 14:55 29.70931 32.20006 22728 ft 507 kts 105°
2026-05-05 14:55 29.70047 32.23952 23303 ft 513 kts 105°
2026-05-05 14:56 29.69147 32.27962 23868 ft 519 kts 105°
2026-05-05 14:56 29.68243 32.31990 24406 ft 522 kts 105°
2026-05-05 14:56 29.67343 32.35997 24985 ft 524 kts 105°
2026-05-05 14:56 29.66430 32.40060 25573 ft 527 kts 105°
2026-05-05 14:57 29.65509 32.44154 26132 ft 530 kts 106°
2026-05-05 14:57 29.64583 32.48262 26658 ft 533 kts 106°
2026-05-05 14:57 29.63646 32.52412 27166 ft 537 kts 106°
2026-05-05 14:57 29.62702 32.56586 27660 ft 540 kts 106°
2026-05-05 14:58 29.61753 32.60780 28149 ft 543 kts 106°
2026-05-05 14:58 29.60848 32.65015 28617 ft 547 kts 103°
2026-05-05 14:58 29.60236 32.69354 29042 ft 551 kts 97°
2026-05-05 14:58 29.59937 32.73703 29466 ft 554 kts 91°
2026-05-05 14:59 29.59966 32.78136 29902 ft 556 kts 89°
2026-05-05 14:59 29.60053 32.82570 30396 ft 555 kts 88°
2026-05-05 14:59 29.60143 32.86995 30887 ft 554 kts 89°
2026-05-05 14:59 29.60220 32.91425 31325 ft 554 kts 89°
2026-05-05 15:00 29.60281 32.95850 31725 ft 554 kts 89°
2026-05-05 15:00 29.60313 32.98794 32003 ft 554 kts 89°
2026-05-05 15:00 29.60366 33.04715 32566 ft 554 kts 90°
2026-05-05 15:00 29.60400 33.09150 33008 ft 554 kts 90°
2026-05-05 15:01 29.60432 33.13574 33443 ft 553 kts 90°
2026-05-05 15:01 29.60464 33.17940 33818 ft 553 kts 90°
2026-05-05 15:01 29.60496 33.22358 34149 ft 554 kts 90°
2026-05-05 15:01 29.60528 33.26796 34485 ft 554 kts 90°
2026-05-05 15:02 29.60558 33.31219 34828 ft 553 kts 90°
2026-05-05 15:02 29.60587 33.35642 35086 ft 555 kts 90°
2026-05-05 15:02 29.60640 33.44546 35055 ft 556 kts 90°
2026-05-05 15:03 29.60688 33.53397 35043 ft 552 kts 90°
2026-05-05 15:03 29.60729 33.62215 35048 ft 551 kts 90°
2026-05-05 15:04 29.60765 33.71017 35042 ft 551 kts 91°
2026-05-05 15:04 29.60795 33.79787 35052 ft 552 kts 91°
2026-05-05 15:05 29.60793 33.93048 35054 ft 554 kts 91°
2026-05-05 15:06 29.60767 34.01905 35042 ft 555 kts 91°
2026-05-05 15:06 29.60742 34.10784 35052 ft 556 kts 91°
2026-05-05 15:07 29.60714 34.19672 35051 ft 557 kts 91°
2026-05-05 15:07 29.60693 34.28517 35040 ft 557 kts 91°
2026-05-05 15:08 29.60707 34.37433 35041 ft 557 kts 91°
2026-05-05 15:08 29.60714 34.46349 35038 ft 557 kts 91°
2026-05-05 15:09 29.60532 34.55210 35021 ft 550 kts 102°
2026-05-05 15:09 29.59466 34.59371 35034 ft 539 kts 120°
2026-05-05 15:09 29.57609 34.63068 35043 ft 531 kts 133°
2026-05-05 15:09 29.55149 34.66174 35024 ft 520 kts 148°
2026-05-05 15:10 29.52289 34.68672 35040 ft 519 kts 150°
2026-05-05 15:10 29.46774 34.74173 34989 ft 539 kts 135°
2026-05-05 15:10 29.44729 34.77809 35012 ft 546 kts 121°
2026-05-05 15:11 29.43362 34.81814 35009 ft 550 kts 108°
2026-05-05 15:11 29.42307 34.90530 35011 ft 553 kts 97°
2026-05-05 15:12 29.42399 34.99369 35020 ft 555 kts 86°
2026-05-05 15:12 29.43770 35.08087 35027 ft 556 kts 75°
2026-05-05 15:13 29.45892 35.16637 35032 ft 557 kts 73°
2026-05-05 15:13 29.48003 35.25193 35028 ft 557 kts 74°
2026-05-05 15:14 29.50024 35.33786 35066 ft 558 kts 75°
2026-05-05 15:14 29.52025 35.42401 35033 ft 559 kts 75°
2026-05-05 15:15 29.54037 35.51024 35015 ft 559 kts 75°
2026-05-05 15:15 29.56069 35.59643 35021 ft 559 kts 74°
2026-05-05 15:16 29.58090 35.68225 35025 ft 559 kts 75°
2026-05-05 15:16 29.60115 35.76877 35028 ft 560 kts 75°
2026-05-05 15:17 29.61925 35.85591 35015 ft 561 kts 79°
2026-05-05 15:17 29.63346 35.94415 35007 ft 561 kts 80°
2026-05-05 15:18 29.64744 36.03245 34994 ft 562 kts 80°
2026-05-05 15:18 29.66168 36.12028 34992 ft 562 kts 80°
2026-05-05 15:19 29.67608 36.20856 34993 ft 562 kts 80°
2026-05-05 15:19 29.69041 36.29698 34983 ft 562 kts 80°
2026-05-05 15:20 29.70465 36.38538 34985 ft 562 kts 80°
2026-05-05 15:20 29.71901 36.47367 34984 ft 561 kts 80°
2026-05-05 15:21 29.73336 36.56203 34975 ft 560 kts 80°
2026-05-05 15:21 29.74482 36.65004 34973 ft 558 kts 89°
2026-05-05 15:22 29.74193 36.73880 34986 ft 553 kts 101°
2026-05-05 15:22 29.72628 36.82464 34998 ft 548 kts 108°
2026-05-05 15:23 29.70831 36.91004 34987 ft 550 kts 108°
2026-05-05 15:23 29.69072 36.99574 34980 ft 551 kts 108°
2026-05-05 15:24 29.67346 37.08174 34981 ft 552 kts 108°
2026-05-05 15:24 29.65632 37.16724 34986 ft 552 kts 108°
2026-05-05 15:25 29.63898 37.25326 34967 ft 552 kts 108°
2026-05-05 15:25 29.62156 37.33917 34969 ft 552 kts 108°
2026-05-05 15:26 29.60407 37.42509 34978 ft 552 kts 108°
2026-05-05 15:26 29.58653 37.51098 34968 ft 553 kts 109°
2026-05-05 15:27 29.56889 37.59708 34972 ft 553 kts 109°
2026-05-05 15:27 29.55129 37.68266 34967 ft 554 kts 109°
2026-05-05 15:28 29.53355 37.76871 34959 ft 554 kts 109°
2026-05-05 15:28 29.51570 37.85489 34969 ft 554 kts 109°
2026-05-05 15:29 29.49777 37.94122 35238 ft 557 kts 109°
2026-05-05 15:29 29.49182 37.96985 35473 ft 553 kts 109°
2026-05-05 15:29 29.48307 38.01241 36139 ft 545 kts 108°
2026-05-05 15:29 29.47509 38.05491 36578 ft 544 kts 107°
2026-05-05 15:30 29.46513 38.11202 36883 ft 546 kts 107°
2026-05-05 15:30 29.45293 38.18342 36982 ft 550 kts 107°
2026-05-05 15:31 29.43791 38.26942 36969 ft 547 kts 107°
2026-05-05 15:31 29.42277 38.35417 36976 ft 544 kts 108°
2026-05-05 15:32 29.40746 38.43905 36985 ft 542 kts 108°
2026-05-05 15:32 29.39216 38.52363 37001 ft 542 kts 108°
2026-05-05 15:33 29.37678 38.60844 36988 ft 543 kts 108°
2026-05-05 15:33 29.36134 38.69338 36980 ft 544 kts 108°
2026-05-05 15:34 29.34584 38.77838 37005 ft 545 kts 108°
2026-05-05 15:34 29.33026 38.86343 37015 ft 546 kts 108°
2026-05-05 15:35 29.31418 38.94841 37009 ft 545 kts 109°
2026-05-05 15:35 29.29652 39.03226 37022 ft 544 kts 110°
2026-05-05 15:36 29.27843 39.11660 37023 ft 545 kts 110°
2026-05-05 15:36 29.26059 39.20087 37020 ft 545 kts 110°
2026-05-05 15:37 29.24283 39.28522 37023 ft 545 kts 110°
2026-05-05 15:37 29.22501 39.36965 37019 ft 545 kts 110°
2026-05-05 15:38 29.20722 39.45352 37022 ft 545 kts 110°
2026-05-05 15:38 29.18923 39.53797 37025 ft 546 kts 110°
2026-05-05 15:39 29.17118 39.62248 37010 ft 546 kts 110°
2026-05-05 15:39 29.15318 39.70650 37025 ft 547 kts 110°
2026-05-05 15:40 29.13504 39.79095 37027 ft 547 kts 110°
2026-05-05 15:40 29.11352 39.87374 37025 ft 534 kts 123°
2026-05-05 15:40 29.09605 39.91062 37037 ft 522 kts 132°
2026-05-05 15:41 29.07497 39.94415 37034 ft 515 kts 139°
2026-05-05 15:41 29.05047 39.97352 37028 ft 504 kts 147°
2026-05-05 15:41 29.02492 40.00041 37027 ft 506 kts 148°
2026-05-05 15:42 28.97285 40.05487 37013 ft 509 kts 147°
2026-05-05 15:42 28.92086 40.10998 37013 ft 510 kts 147°
2026-05-05 15:43 28.86911 40.16539 37014 ft 509 kts 147°
2026-05-05 15:43 28.81759 40.22064 37017 ft 507 kts 147°
2026-05-05 15:44 28.76627 40.27553 36987 ft 504 kts 147°
2026-05-05 15:44 28.71549 40.32973 37009 ft 502 kts 147°
2026-05-05 15:45 28.66460 40.38395 37014 ft 500 kts 147°
2026-05-05 15:45 28.61381 40.43796 37010 ft 499 kts 147°
2026-05-05 15:46 28.56301 40.49192 36990 ft 499 kts 147°
2026-05-05 15:46 28.51221 40.54581 37005 ft 498 kts 147°
2026-05-05 15:47 28.46168 40.59935 37002 ft 498 kts 147°
2026-05-05 15:47 28.41178 40.65214 36983 ft 498 kts 147°
2026-05-05 15:48 28.36097 40.70583 36996 ft 499 kts 147°
2026-05-05 15:48 28.31012 40.75948 36994 ft 499 kts 147°
2026-05-05 15:49 28.25910 40.81325 36991 ft 500 kts 147°
2026-05-05 15:49 28.20837 40.86664 36987 ft 500 kts 147°
2026-05-05 15:50 28.15739 40.92022 36974 ft 500 kts 148°
2026-05-05 15:50 28.10626 40.97389 36986 ft 501 kts 148°
2026-05-05 15:51 28.05506 41.02756 36949 ft 501 kts 148°
2026-05-05 15:51 28.00388 41.08113 36967 ft 502 kts 148°
2026-05-05 15:52 27.95257 41.13478 36966 ft 502 kts 148°
2026-05-05 15:52 27.90123 41.18839 36976 ft 502 kts 148°
2026-05-05 15:53 27.85007 41.24175 36974 ft 503 kts 148°
2026-05-05 15:53 27.79855 41.29549 36973 ft 503 kts 148°
2026-05-05 15:54 27.74701 41.34917 36968 ft 504 kts 148°
2026-05-05 15:54 27.69544 41.40281 36940 ft 504 kts 148°
2026-05-05 15:55 27.64380 41.45645 36964 ft 505 kts 148°
2026-05-05 15:55 27.59206 41.51013 36969 ft 505 kts 148°
2026-05-05 15:56 27.54018 41.56388 36947 ft 506 kts 148°
2026-05-05 15:56 27.48856 41.61733 36959 ft 506 kts 148°
2026-05-05 15:57 27.43772 41.67263 36969 ft 516 kts 142°
2026-05-05 15:57 27.39427 41.73848 36967 ft 533 kts 130°
2026-05-05 15:58 27.35691 41.81065 36963 ft 534 kts 129°
2026-05-05 15:58 27.31969 41.88310 36962 ft 533 kts 130°
2026-05-05 15:59 27.28215 41.95481 36971 ft 532 kts 130°
2026-05-05 15:59 27.24464 42.02580 36924 ft 530 kts 130°
2026-05-05 16:00 27.20704 42.09686 36957 ft 529 kts 131°
2026-05-05 16:00 27.16944 42.16784 36963 ft 528 kts 131°
2026-05-05 16:01 27.13183 42.23879 36942 ft 528 kts 131°
2026-05-05 16:01 27.09420 42.30968 36952 ft 528 kts 131°
2026-05-05 16:02 27.05672 42.37998 36953 ft 528 kts 131°
2026-05-05 16:02 27.01889 42.45067 36947 ft 527 kts 131°
2026-05-05 16:03 26.98111 42.52115 36948 ft 528 kts 131°
2026-05-05 16:03 26.94328 42.59168 36942 ft 527 kts 131°
2026-05-05 16:04 26.90547 42.66207 36946 ft 527 kts 131°
2026-05-05 16:04 26.86785 42.73201 36945 ft 526 kts 131°
2026-05-05 16:05 26.82998 42.80226 36924 ft 527 kts 131°
2026-05-05 16:05 26.79204 42.87255 36934 ft 527 kts 131°
2026-05-05 16:06 26.75428 42.94241 36938 ft 527 kts 131°
2026-05-05 16:06 26.71625 43.01264 36936 ft 527 kts 131°
2026-05-05 16:07 26.67824 43.08275 36911 ft 526 kts 131°
2026-05-05 16:07 26.64019 43.15283 36910 ft 526 kts 131°
2026-05-05 16:08 26.60242 43.22239 36902 ft 527 kts 131°
2026-05-05 16:08 26.56443 43.29234 36893 ft 527 kts 131°
2026-05-05 16:09 26.52637 43.36234 36898 ft 527 kts 131°
2026-05-05 16:09 26.48827 43.43227 36860 ft 527 kts 131°
2026-05-05 16:10 26.45014 43.50216 36872 ft 527 kts 131°
2026-05-05 16:10 26.41199 43.57198 36867 ft 527 kts 131°
2026-05-05 16:11 26.37378 43.64180 36829 ft 527 kts 131°
2026-05-05 16:12 26.29753 43.78118 36857 ft 528 kts 129°
2026-05-05 16:13 26.21320 43.96441 36863 ft 534 kts 126°
2026-05-05 16:13 26.17946 44.03809 36845 ft 533 kts 126°
2026-05-05 16:14 26.11158 44.18507 36868 ft 533 kts 126°
2026-05-05 16:15 26.04936 44.31947 36878 ft 533 kts 126°
2026-05-05 16:16 25.98142 44.46578 36884 ft 534 kts 126°
2026-05-05 16:17 25.93024 44.57570 36889 ft 534 kts 126°
2026-05-05 16:18 25.87885 44.68581 36885 ft 534 kts 126°
2026-05-05 16:19 25.82761 44.79516 36897 ft 534 kts 126°
2026-05-05 16:19 25.77588 44.90519 36886 ft 535 kts 126°
2026-05-05 16:20 25.70718 45.05101 36897 ft 535 kts 126°
2026-05-05 16:22 25.62011 45.23492 34878 ft 545 kts 125°
2026-05-05 16:22 25.58470 45.30958 32999 ft 550 kts 124°
2026-05-05 16:23 25.54895 45.38488 31060 ft 552 kts 123°
2026-05-05 16:23 25.53128 45.42205 30124 ft 554 kts 123°
2026-05-05 16:23 25.49579 45.49673 28671 ft 541 kts 123°
2026-05-05 16:24 25.47836 45.53335 28011 ft 534 kts 123°
2026-05-05 16:24 25.46115 45.56944 27343 ft 527 kts 123°
2026-05-05 16:24 25.42727 45.64033 26109 ft 514 kts 122°
2026-05-05 16:25 25.41064 45.67506 25501 ft 509 kts 122°
2026-05-05 16:25 25.37779 45.74365 24244 ft 499 kts 122°
2026-05-05 16:25 25.36183 45.77694 23637 ft 494 kts 122°
2026-05-05 16:26 25.33153 45.84423 22335 ft 484 kts 118°
2026-05-05 16:26 25.30399 45.91115 21196 ft 471 kts 118°
2026-05-05 16:27 25.29042 45.94388 20594 ft 466 kts 118°
2026-05-05 16:27 25.27690 45.97611 20029 ft 455 kts 118°
2026-05-05 16:27 25.26390 46.00695 19308 ft 428 kts 119°
2026-05-05 16:27 25.25150 46.03615 18797 ft 417 kts 119°
2026-05-05 16:28 25.23912 46.06514 18243 ft 417 kts 119°
2026-05-05 16:28 25.22672 46.09412 17628 ft 416 kts 119°
2026-05-05 16:28 25.21442 46.12298 17056 ft 414 kts 118°
2026-05-05 16:28 25.20220 46.15165 16501 ft 411 kts 118°
2026-05-05 16:29 25.19007 46.18010 15976 ft 408 kts 118°
2026-05-05 16:29 25.17803 46.20832 15432 ft 406 kts 118°
2026-05-05 16:29 25.16602 46.23643 14918 ft 403 kts 118°
2026-05-05 16:29 25.15411 46.26428 14469 ft 398 kts 118°
2026-05-05 16:30 25.14234 46.29180 13965 ft 396 kts 118°
2026-05-05 16:30 25.13062 46.31918 13421 ft 394 kts 118°
2026-05-05 16:30 25.11909 46.34611 12857 ft 392 kts 117°
2026-05-05 16:30 25.10750 46.37315 12307 ft 389 kts 117°
2026-05-05 16:31 25.09596 46.40008 11771 ft 386 kts 117°
2026-05-05 16:31 25.08448 46.42683 11235 ft 384 kts 117°
2026-05-05 16:31 25.07065 46.45090 10971 ft 362 kts 137°
2026-05-05 16:31 25.05008 46.46516 10868 ft 343 kts 165°
2026-05-05 16:32 25.02715 46.46664 10792 ft 325 kts 193°
2026-05-05 16:32 25.00750 46.45600 10645 ft 312 kts 223°
2026-05-05 16:32 24.99262 46.43997 10525 ft 292 kts 216°
2026-05-05 16:32 24.97439 46.43231 10399 ft 279 kts 182°
2026-05-05 16:33 24.95577 46.43573 10340 ft 268 kts 161°
2026-05-05 16:33 24.93818 46.44299 10241 ft 274 kts 161°
2026-05-05 16:33 24.91966 46.44948 10134 ft 284 kts 165°
2026-05-05 16:33 24.90060 46.45615 9915 ft 291 kts 160°
2026-05-05 16:34 24.88204 46.46531 9573 ft 294 kts 153°
2026-05-05 16:34 24.86449 46.47693 9222 ft 294 kts 147°
2026-05-05 16:34 24.84822 46.49053 8877 ft 294 kts 141°
2026-05-05 16:34 24.83316 46.50576 8544 ft 294 kts 136°
2026-05-05 16:35 24.81942 46.52238 8211 ft 294 kts 131°
2026-05-05 16:35 24.80735 46.54048 7761 ft 294 kts 117°
2026-05-05 16:35 24.80324 46.56259 7254 ft 298 kts 88°
2026-05-05 16:35 24.80519 46.58552 6808 ft 303 kts 84°
2026-05-05 16:36 24.80768 46.60840 6491 ft 302 kts 85°
2026-05-05 16:36 24.80947 46.63105 6187 ft 300 kts 87°
2026-05-05 16:36 24.81062 46.65387 5952 ft 296 kts 89°
2026-05-05 16:36 24.81130 46.67628 5750 ft 291 kts 90°
2026-05-05 16:37 24.81169 46.69862 5403 ft 290 kts 90°
2026-05-05 16:37 24.81193 46.71994 5254 ft 266 kts 91°
2026-05-05 16:37 24.81213 46.73989 5153 ft 255 kts 91°
2026-05-05 16:37 24.81230 46.75897 5064 ft 244 kts 91°
2026-05-05 16:38 24.81532 46.77669 4847 ft 234 kts 59°
2026-05-05 16:38 24.82695 46.78807 4502 ft 227 kts 15°
2026-05-05 16:38 24.84206 46.78787 4104 ft 216 kts 329°
2026-05-05 16:38 24.85425 46.77796 4102 ft 225 kts 321°
2026-05-05 16:39 24.86802 46.77090 4030 ft 212 kts 338°
2026-05-05 16:39 24.88087 46.76329 4040 ft 208 kts 320°
2026-05-05 16:39 24.89266 46.75426 4026 ft 205 kts 327°
2026-05-05 16:39 24.90542 46.74726 3587 ft 203 kts 332°
2026-05-05 16:40 24.91747 46.73967 3150 ft 193 kts 328°
2026-05-05 16:40 24.92883 46.73222 2559 ft 188 kts 329°
2026-05-05 16:40 24.93961 46.72555 2240 ft 166 kts 329°
2026-05-05 16:40 24.94901 46.71960 2043 ft 147 kts 331°
2026-05-05 16:41 24.95711 46.71451 2032 ft 117 kts 331°
2026-05-05 16:41 24.96291 46.71085 2030 ft 74 kts 330°
2026-05-05 16:41 24.96605 46.70888 2030 ft 30 kts 330°
2026-05-05 16:41 24.96786 46.70777 2028 ft 42 kts 331°
2026-05-05 16:42 24.97048 46.70606 2027 ft 29 kts 330°
2026-05-05 16:42 24.97094 46.70473 2028 ft 15 kts 245°
2026-05-05 16:42 24.97043 46.70375 2033 ft 15 kts 241°
2026-05-05 16:42 24.97010 46.70310 2034 ft 8 kts 241°
2026-05-05 16:43 24.96983 46.70255 2037 ft 8 kts 241°
2026-05-05 16:43 24.96955 46.70200 2034 ft 8 kts 241°
2026-05-05 16:43 24.96928 46.70146 2034 ft 8 kts 240°
2026-05-05 16:43 24.96898 46.70093 2035 ft 8 kts 238°
2026-05-05 16:44 24.96869 46.70039 2035 ft 8 kts 240°
2026-05-05 16:44 24.96841 46.69984 2035 ft 8 kts 240°
2026-05-05 16:44 24.96813 46.69929 2036 ft 8 kts 240°
2026-05-05 16:44 24.96773 46.69851 2036 ft 18 kts 240°
2026-05-05 16:45 24.96700 46.69711 2044 ft 22 kts 240°
2026-05-05 16:45 24.96625 46.69570 2045 ft 18 kts 240°
2026-05-05 16:45 24.96577 46.69479 2048 ft 13 kts 239°
2026-05-05 16:45 24.96529 46.69390 2050 ft 13 kts 239°
2026-05-05 16:46 24.96482 46.69300 2050 ft 13 kts 239°
2026-05-05 16:46 24.96434 46.69211 2050 ft 13 kts 239°
2026-05-05 16:46 24.96387 46.69122 2049 ft 13 kts 239°
2026-05-05 16:46 24.96339 46.69031 2047 ft 14 kts 241°
2026-05-05 16:47 24.96289 46.68930 2044 ft 16 kts 241°
2026-05-05 16:47 24.96228 46.68815 2040 ft 19 kts 239°
2026-05-05 16:47 24.96166 46.68698 2037 ft 15 kts 240°
2026-05-05 16:47 24.96113 46.68596 2036 ft 15 kts 240°
2026-05-05 16:48 24.96050 46.68515 2034 ft 14 kts 196°
2026-05-05 16:48 24.95959 46.68550 2035 ft 14 kts 149°
2026-05-05 16:48 24.95875 46.68605 2032 ft 14 kts 150°
2026-05-05 16:48 24.95789 46.68658 2033 ft 14 kts 150°
2026-05-05 16:49 24.95704 46.68710 2032 ft 14 kts 150°
2026-05-05 16:49 24.95619 46.68763 2034 ft 14 kts 150°
2026-05-05 16:49 24.95562 46.68843 2031 ft 14 kts 89°
2026-05-05 16:49 24.95602 46.68940 2030 ft 14 kts 60°
2026-05-05 16:50 24.95651 46.69032 2035 ft 14 kts 59°
2026-05-05 16:50 24.95700 46.69124 2032 ft 14 kts 59°
2026-05-05 16:50 24.95729 46.69224 2029 ft 14 kts 94°
2026-05-05 16:50 24.95710 46.69323 2034 ft 13 kts 104°
2026-05-05 16:51 24.95721 46.69420 2033 ft 13 kts 45°
2026-05-05 16:51 24.95806 46.69423 2031 ft 13 kts 336°
2026-05-05 16:51 24.95888 46.69374 2032 ft 9 kts 330°
2026-05-05 16:51 24.95938 46.69344 2029 ft 7 kts 338°
2026-05-05 16:52 24.95979 46.69366 2033 ft 7 kts 53°
2026-05-05 16:52 24.95996 46.69390 2033 ft 3 kts 46°
2026-05-05 16:52 24.95999 46.69395 2036 ft 0 kts 54°
2026-05-05 16:52 24.96001 46.69400 2033 ft 0 kts 60°
2026-05-05 16:53 24.96004 46.69406 2033 ft 2 kts 60°
2026-05-05 16:53 24.95999 46.69396 2036 ft 0 kts 60°